Location: Unspecified
(47.3350°N, 0.0000°E)
Time: 21:03:58
(UTC+00:00)

ACS3 Solar Sail - Visible Passes

Search period start: 04 April 2026 00:00
Search period end: 14 April 2026 00:00
Orbit: 874 x 980 km, 97.2° (Epoch: 29 March)

Date Brightness Start Highest point End Pass type
(mag) Time Alt. Az. Time Alt. Az. Time Alt. Az.
4 Apr 3.8 00:00:29 10° NE 00:02:56 17° ENE 00:02:56 17° ENE visible
4 Apr 2.0 01:41:35 10° N 01:46:32 63° N 01:46:32 63° N visible
4 Apr 3.4 03:25:43 10° NNW 03:29:07 16° NW 03:30:08 15° WNW visible
5 Apr 3.6 00:10:14 10° NE 00:13:20 20° ENE 00:13:20 20° ENE visible
5 Apr 2.0 01:51:48 10° N 01:56:56 61° NNW 01:56:56 61° NNW visible
5 Apr 3.6 03:36:24 10° NNW 03:39:05 13° NW 03:40:32 12° WNW visible
6 Apr 3.4 00:20:02 10° NE 00:23:41 25° ENE 00:23:41 25° ENE visible
6 Apr 2.0 02:01:58 10° N 02:07:17 54° NW 02:07:17 54° NW visible
6 Apr 3.8 03:47:22 10° NW 03:48:59 11° NW 03:50:38 10° WNW visible
7 Apr 3.1 00:29:52 10° NNE 00:33:58 30° ENE 00:33:58 30° ENE visible
7 Apr 2.2 02:12:06 10° N 02:17:33 47° WNW 02:17:33 47° WNW visible
8 Apr 2.9 00:39:42 10° NNE 00:44:12 36° ENE 00:44:12 36° ENE visible
8 Apr 2.4 02:22:12 10° N 02:27:42 39° WNW 02:27:47 39° WNW visible
9 Apr 2.6 00:49:30 10° NNE 00:54:22 43° ENE 00:54:22 43° ENE visible
9 Apr 2.6 02:32:16 10° N 02:37:33 33° WNW 02:37:56 33° WNW visible
10 Apr 2.3 00:59:18 10° NNE 01:04:28 52° ENE 01:04:28 52° ENE visible
10 Apr 2.8 02:42:19 10° N 02:47:19 28° WNW 02:48:03 28° WNW visible
10 Apr 4.1 23:30:05 10° ENE 23:30:57 11° ENE 23:30:57 11° ENE visible
11 Apr 2.0 01:09:05 10° NNE 01:14:31 63° ENE 01:14:31 63° ENE visible
11 Apr 3.0 02:52:20 10° N 02:57:00 24° WNW 02:58:05 23° WNW visible
11 Apr 3.9 23:38:38 10° NE 23:40:56 13° ENE 23:40:56 13° ENE visible
12 Apr 1.8 01:18:49 10° NNE 01:24:30 76° ENE 01:24:30 76° ENE visible
12 Apr 3.2 03:02:20 10° NNW 03:06:38 21° WNW 03:08:04 19° WNW visible
12 Apr 3.7 23:47:41 10° NE 23:50:52 17° ENE 23:50:52 17° ENE visible
13 Apr 1.7 01:28:31 10° NNE 01:34:26 85° NNW 01:34:26 85° NNW visible
13 Apr 3.4 03:12:21 10° NNW 03:16:11 18° WNW 03:18:00 16° WNW visible
